1494068400.12,25952,17.13,73682.5,7.11,-0.41,1.29,0,*61
1494068401.31,25953,17.06,73682.8,7.11,-0.73,0.97,0,*55
1494068402.48,25954,17.06,73682.3,7.09,-0.61,1.05,0,*62
1494068403.7,25955,17.13,73684.0,7.13,0.21,1.93,0,*4E
1494068404.89,25956,17.13,73686.3,7.13,0.09,1.67,0,*7C
1494068406.13,25957,17.06,73686.0,7.11,0.51,1.97,0,*4D
1494068407.32,25958,17.06,73682.3,7.13,-0.27,1.05,0,*67
1494068408.52,25959,17.06,73682.3,7.13,-0.69,0.79,0,*56
1494068409.72,25960,17.13,73682.8,7.13,-0.37,1.33,0,*68
1494068410.92,25961,17.13,73680.8,7.13,-0.07,1.55,0,*5A
1494068412.11,25962,17.13,73678.8,7.13,-0.03,1.63,0,*58
1494068413.32,25963,17.06,73676.5,7.13,-0.45,0.91,0,*57
1494068414.51,25964,17.06,73678.5,7.13,-0.53,0.79,0,*51
1494068415.75,25965,17.06,73676.3,7.11,0.13,1.51,0,*40
1494068416.94,25966,17.06,73678.5,7.17,0.47,1.79,0,*4E
1494068418.19,25967,17.13,73682.3,7.15,0.21,1.43,0,*44
1494068419.4,25968,17.13,73680.0,7.17,0.33,1.59,0,*41
1494068420.61,25969,17.06,73682.0,7.17,0.21,1.47,0,*4C
1494068421.8,25970,17.06,73680.8,7.17,0.59,1.83,0,*43
1494068423.05,25971,17.13,73680.8,7.15,0.29,1.55,0,*4C
1494068424.25,25972,17.13,73684.5,7.17,0.71,1.83,0,*4B
1494068425.49,25973,17.13,73682.5,7.19,0.51,1.67,0,*4C
1494068426.69,25974,17.13,73686.0,7.21,1.01,2.09,0,*7F
1494068427.9,25975,17.06,73684.3,7.21,1.01,2.13,0,*75
1494068429.14,25976,17.06,73684.8,7.19,1.05,2.17,0,*7D
1494068430.34,25977,17.13,73686.5,7.21,1.01,2.21,0,*76
1494068431.53,25978,17.13,73684.8,7.25,0.41,1.75,0,*4A
1494068432.76,25979,17.06,73680.3,7.27,-0.07,1.33,0,*54
1494068433.99,25980,17.06,73680.0,7.27,-0.19,1.33,0,*6D
1494068435.21,25981,17.06,73682.3,7.27,-0.53,0.71,0,*55
1494068436.41,25982,17.06,73680.5,7.29,-0.53,0.71,0,*58
1494068437.64,25983,17.06,73678.3,7.31,-0.53,0.63,0,*53
1494068438.88,25984,17.13,73682.8,7.31,-0.23,0.95,0,*5A
1494068440.07,25985,17.06,73680.8,7.31,-0.03,1.05,0,*51
1494068441.31,25986,17.06,73680.5,7.31,0.37,1.21,0,*4E
1494068442.54,25987,17.06,73680.5,7.31,-0.29,0.59,0,*53
1494068443.74,25988,17.13,73680.8,7.33,-0.33,0.47,0,*5A
1494068444.93,25989,17.13,73684.5,7.33,-0.93,0.01,0,*63
1494068446.11,25990,17.13,73684.0,7.33,-0.81,0.05,0,*6C
1494068447.31,25991,17.13,73682.3,7.33,-0.49,0.17,0,*5A
1494068448.51,25992,17.13,73678.3,7.33,-0.37,0.29,0,*5D
1494068449.68,25993,17.06,73678.8,7.33,-0.45,0.05,0,*67
1494068450.9,25994,17.06,73672.3,7.35,-0.65,-0.15,0,*78
1494068452.11,25995,17.13,73676.5,7.33,-0.97,-0.69,0,*79
1494068453.32,25996,17.06,73674.0,7.31,-1.17,-0.73,0,*4A
1494068454.57,25997,17.13,73674.5,7.31,-1.99,-1.51,0,*7C
1494068455.78,25998,17.13,73674.5,7.29,-2.51,-2.27,0,*7F
1494068456.97,25999,17.06,73672.0,7.25,-3.15,-3.03,0,*74
1494068458.16,26000,17.13,73674.5,7.21,-2.35,-2.19,0,*73
1494068459.37,26001,17.13,73670.5,7.19,-2.27,-2.15,0,*76
1494068460.61,26002,17.13,73670.5,7.19,-1.83,-1.51,0,*7B
1494068461.86,26003,17.13,73668.3,7.15,-1.87,-1.51,0,*72
1494068463.1,26004,17.13,73670.0,7.15,-2.07,-1.75,0,*78
1494068464.37,26005,17.13,73672.0,7.11,-1.83,-1.35,0,*76
1494068465.56,26006,17.13,73672.8,7.09,-1.71,-1.21,0,*74
1494068466.77,26007,17.13,73668.5,7.07,-2.15,-1.59,0,*75
1494068467.96,26008,17.06,73668.3,7.05,-1.25,-0.69,0,*4A
1494068469.18,26009,17.13,73674.0,7.03,-1.17,-0.77,0,*43
1494068470.4,26010,17.13,73674.0,7.05,-0.27,0.17,0,*54
1494068471.59,26011,17.13,73672.5,7.05,-0.29,0.21,0,*5E
1494068472.8,26012,17.13,73674.0,7.05,-0.93,-0.41,0,*77
1494068474.01,26013,17.06,73670.0,7.05,-0.89,-0.81,0,*71
1494068475.22,26014,17.13,73674.5,7.03,-2.87,-2.27,0,*72
1494068476.45,26015,17.13,73676.8,7.03,-1.67,-0.89,0,*48
1494068477.66,26016,17.13,73674.5,7.03,-1.33,-0.65,0,*48
1494068478.89,26017,17.13,73676.3,6.97,-2.59,-1.87,0,*77
1494068480.11,26018,17.13,73678.5,6.97,-3.15,-2.59,0,*71
1494068481.29,26019,17.13,73676.0,6.93,-2.15,-1.55,0,*7A
1494068482.53,26020,17.13,73676.8,6.93,-2.67,-1.91,0,*7D
1494068483.76,26021,17.13,73678.3,6.91,-1.55,-0.89,0,*44
1494068484.94,26022,17.13,73680.3,6.89,-1.59,-0.69,0,*4C
1494068486.18,26023,17.13,73676.8,6.89,-1.83,-0.97,0,*4B
1494068487.36,26024,17.13,73680.5,6.89,-1.59,-0.81,0,*4C
1494068488.57,26025,17.06,73678.8,6.89,-1.43,-0.57,0,*4D
1494068489.79,26026,17.13,73682.5,6.85,-1.09,-0.15,0,*4A
1494068491.01,26027,17.13,73682.5,6.87,-0.77,0.13,0,*5A
1494068492.21,26028,17.06,73676.8,6.87,-0.77,-0.03,0,*49
1494068493.42,26029,17.13,73680.8,6.87,-0.77,0.05,0,*63
1494068494.62,26030,17.13,73678.5,6.89,-0.57,0.29,0,*59
1494068495.82,26031,17.13,73682.0,6.89,-0.11,0.55,0,*51
1494068497.03,26032,17.13,73676.5,6.89,-0.93,-0.29,0,*7E
1494068498.25,26033,17.06,73676.8,6.89,-1.05,-0.33,0,*4A
1494068499.42,26034,17.13,73676.0,6.89,-0.57,0.05,0,*63
1494068500.64,26035,17.13,73676.0,6.89,-1.47,-0.73,0,*4E
1494068501.83,26036,17.13,73680.0,6.89,-0.73,-0.07,0,*48
1494068503.02,26037,17.13,73678.5,6.89,-0.29,0.41,0,*59
1494068504.2,26038,17.13,73678.3,6.89,-0.53,0.09,0,*67
1494068505.41,26039,17.06,73676.0,6.89,-0.41,0.21,0,*5F
1494068506.62,26040,17.13,73676.0,6.87,-0.77,-0.15,0,*70
1494068507.84,26041,17.13,73676.5,6.87,-1.21,-0.49,0,*4A
1494068509.03,26042,17.13,73676.5,6.89,-0.69,-0.11,0,*77
1494068510.28,26043,17.13,73678.3,6.87,-3.15,-2.51,0,*76
1494068511.5,26044,17.13,73676.0,6.83,-3.27,-2.63,0,*75
1494068512.74,26045,17.06,73672.3,6.81,-3.31,-2.67,0,*75
1494068513.95,26046,17.13,73674.3,6.79,-3.19,-2.47,0,*79
1494068515.17,26047,17.13,73672.5,6.73,-3.83,-3.23,0,*72
1494068516.36,26048,17.13,73672.8,6.71,-4.05,-3.39,0,*7D
1494068517.56,26049,17.06,73670.3,6.67,-3.91,-3.19,0,*73
1494068518.77,26050,17.13,73670.3,6.65,-4.41,-3.87,0,*74
1494068519.99,26051,17.13,73674.3,6.59,-4.89,-4.25,0,*71
1494068521.19,26052,17.06,73670.0,6.59,-3.91,-3.15,0,*78
1494068522.45,26053,17.13,73672.0,6.53,-2.67,-1.87,0,*72
1494068523.69,26054,17.13,73674.3,6.51,-3.07,-2.47,0,*7F
1494068524.95,26055,17.13,73672.0,6.51,-1.47,-0.97,0,*47
1494068526.16,26056,17.13,73670.3,6.49,-3.75,-3.27,0,*76
1494068527.34,26057,17.06,73668.5,6.49,-2.87,-2.27,0,*7A
1494068528.56,26058,17.13,73674.0,6.45,-3.39,-2.75,0,*7A
1494068529.78,26059,17.13,73672.8,6.41,-2.99,-2.55,0,*76
1494068530.99,26060,17.13,73672.0,6.41,-3.07,-2.59,0,*76
1494068532.21,26061,17.13,73670.3,6.39,-3.35,-2.83,0,*7E
1494068533.43,26062,17.13,73674.0,6.37,-2.75,-2.39,0,*77
1494068534.67,26063,17.06,73674.0,6.31,-2.67,-2.39,0,*73
1494068535.91,26064,17.06,73670.5,6.31,-2.71,-2.23,0,*78
1494068537.13,26065,17.06,73666.8,6.29,-1.99,-1.51,0,*73
1494068538.38,26066,17.06,73668.8,6.27,-3.03,-2.63,0,*7D
1494068539.63,26067,17.13,73674.0,6.27,-2.23,-1.83,0,*72
1494068540.87,26068,17.13,73672.0,6.27,-1.09,-0.77,0,*4C
1494068542.06,26069,17.13,73674.5,6.25,-0.69,-0.37,0,*7C
1494068543.31,26070,17.13,73674.3,6.25,-1.39,-1.01,0,*74
1494068544.52,26071,17.13,73676.3,6.27,-0.37,-0.03,0,*4B
1494068545.75,26072,17.13,73674.3,6.27,-0.27,0.01,0,*66
1494068546.93,26073,17.13,73674.3,6.29,-0.49,-0.15,0,*79
1494068548.17,26074,17.06,73670.8,6.27,-1.01,-0.65,0,*4A
1494068549.44,26075,17.13,73672.0,6.27,-1.35,-1.01,0,*7F
1494068550.65,26076,17.13,73674.0,6.27,-0.33,-0.11,0,*7B
1494068551.83,26077,17.13,73672.0,6.29,-0.33,-0.03,0,*47
1494068553.06,26078,17.06,73670.5,6.27,-0.03,0.59,0,*67
1494068554.27,26079,17.13,73672.5,6.29,0.21,0.71,0,*7F
1494068555.48,26080,17.13,73672.5,6.29,-0.11,0.51,0,*55
1494068556.69,26081,17.13,73674.8,6.29,-0.65,-0.27,0,*7B
1494068557.91,26082,17.13,73674.8,6.29,-2.11,-1.75,0,*7F
1494068559.18,26083,17.13,73674.8,6.27,-2.51,-2.11,0,*75
1494068560.42,26084,17.13,73678.5,6.23,-1.75,-1.35,0,*76
1494068561.7,26085,17.13,73674.8,6.23,-1.39,-1.01,0,*78
1494068562.94,26086,17.13,73676.5,6.23,-2.11,-1.55,0,*73
1494068564.16,26087,17.06,73674.5,6.19,-2.35,-1.83,0,*76
1494068565.36,26088,17.13,73676.0,6.19,-0.57,-0.11,0,*75
1494068566.57,26089,17.13,73678.5,6.17,-0.69,-0.15,0,*73
1494068567.84,26090,17.13,73674.8,6.17,-1.47,-0.97,0,*4C
1494068569.07,26091,17.06,73674.5,6.17,-1.09,-0.61,0,*4E
1494068570.31,26092,17.13,73678.3,6.17,-2.27,-1.83,0,*7F
1494068571.55,26093,17.13,73674.8,6.15,-1.91,-1.35,0,*7F
1494068572.77,26094,17.13,73676.0,6.13,-2.27,-1.79,0,*78
1494068574.02,26095,17.13,73676.3,6.09,-2.67,-2.23,0,*7A
1494068575.25,26096,17.13,73676.3,6.09,-1.51,-0.97,0,*42
1494068576.45,26097,17.06,73674.5,6.09,-0.29,0.01,0,*6F
1494068577.66,26098,17.06,73674.0,6.07,-0.19,0.33,0,*5C
1494068578.86,26099,17.06,73672.8,6.07,-0.07,0.29,0,*69
1494068580.07,26100,17.06,73676.3,6.07,-0.19,0.17,0,*5A
1494068581.32,26101,17.13,73674.5,6.09,0.21,0.55,0,*75
1494068582.58,26102,17.13,73672.5,6.13,-1.05,-0.89,0,*4B
1494068583.83,26103,17.06,73672.5,6.09,-1.71,-1.43,0,*75
1494068585.07,26104,17.13,73674.3,6.05,-0.85,-0.45,0,*73
1494068586.28,26105,17.06,73674.3,6.07,-0.69,-0.27,0,*76
1494068587.53,26106,17.06,73676.0,6.05,-0.23,0.37,0,*55
1494068588.76,26107,17.06,73674.3,6.05,0.05,0.51,0,*4D
1494068589.97,26108,17.13,73674.5,6.05,0.01,0.51,0,*46
1494068591.15,26109,17.13,73676.8,6.07,-0.29,0.09,0,*6F
1494068592.34,26110,17.06,73674.3,6.07,-0.41,-0.07,0,*4A
1494068593.55,26111,17.06,73676.5,6.05,-0.61,-0.33,0,*7C
1494068594.77,26112,17.06,73674.8,6.05,-0.03,0.37,0,*62
1494068595.98,26113,17.06,73672.5,6.05,-0.37,-0.03,0,*4E
1494068597.2,26114,17.06,73674.0,6.05,-0.03,0.41,0,*65
1494068598.42,26115,17.06,73672.3,6.07,0.29,0.63,0,*73
1494068599.61,26116,17.13,73674.8,6.07,-0.33,-0.19,0,*76
1494068600.85,26117,17.13,73674.0,6.05,-0.57,-0.27,0,*7A
1494068602.06,26118,17.13,73678.0,6.07,-0.19,0.17,0,*53
1494068603.27,26119,17.13,73674.5,6.07,-0.53,-0.27,0,*72
1494068604.53,26120,17.06,73668.0,6.05,-1.13,-0.85,0,*47
1494068605.76,26121,17.13,73674.5,6.01,-0.93,-0.65,0,*75
1494068606.97,26122,17.13,73674.3,6.01,-0.19,0.09,0,*63
1494068608.22,26123,17.06,73668.8,6.01,-0.93,-0.85,0,*79
1494068609.43,26124,17.06,73674.8,6.01,-0.61,-0.41,0,*7B
1494068610.62,26125,17.06,73670.8,5.99,-0.69,-0.57,0,*77
1494068611.83,26126,17.13,73674.8,5.99,-0.93,-0.77,0,*73
1494068613.03,26127,17.06,73672.5,5.99,0.05,0.29,0,*46
1494068614.21,26128,17.13,73676.5,5.99,-0.11,0.05,0,*6F
1494068615.41,26129,17.13,73674.0,5.99,0.21,0.43,0,*72
1494068616.65,26130,17.13,73674.3,5.97,0.37,0.47,0,*77
1494068617.88,26131,17.13,73676.3,5.97,-0.33,-0.27,0,*74
1494068619.09,26132,17.06,73674.3,5.99,-0.33,-0.23,0,*7D
1494068620.31,26133,17.06,73672.5,5.99,0.33,0.55,0,*7D
1494068621.55,26134,17.06,73670.8,5.97,0.17,0.37,0,*76
1494068622.79,26135,17.06,73670.8,5.97,0.67,0.87,0,*7B
1494068624.04,26136,17.13,73674.8,5.97,0.41,0.51,0,*77
1494068625.28,26137,17.13,73676.5,5.97,0.41,0.59,0,*7E
1494068626.53,26138,17.06,73672.8,5.97,0.37,0.47,0,*7F
1494068627.77,26139,17.06,73674.8,5.97,0.59,0.75,0,*77
1494068629.02,26140,17.06,73674.8,5.97,0.63,0.87,0,*7D
1494068630.26,26141,17.06,73674.0,5.97,0.67,0.91,0,*7F
1494068631.49,26142,17.06,73672.0,5.97,0.87,1.01,0,*4A
1494068632.73,26143,17.06,73674.3,5.97,0.29,0.41,0,*7A
1494068633.98,26144,17.06,73670.5,5.97,0.51,0.63,0,*72
1494068635.21,26145,17.06,73668.3,5.97,-0.15,-0.23,0,*77
1494068636.45,26146,17.06,73668.0,5.97,-1.09,-1.21,0,*7B
1494068637.73,26147,17.13,73670.8,5.93,-1.05,-1.01,0,*70
1494068638.93,26148,17.06,73666.8,5.91,-1.71,-1.75,0,*7D
1494068640.14,26149,17.06,73666.8,5.85,-1.75,-1.79,0,*71
1494068641.32,26150,17.06,73666.5,5.83,-2.83,-2.95,0,*74
1494068642.5,26151,17.06,73666.3,5.79,-2.87,-2.91,0,*70
1494068643.74,26152,17.06,73664.0,5.75,-2.75,-2.75,0,*78
1494068644.92,26153,17.06,73658.0,5.71,-2.35,-2.35,0,*7D
1494068646.1,26154,17.06,73660.5,5.67,-1.63,-1.63,0,*7D
1494068647.31,26155,17.13,73666.5,5.69,-1.29,-1.25,0,*7E
1494068648.54,26156,17.06,73666.8,5.67,-2.03,-2.03,0,*7F
1494068649.73,26157,17.06,73664.0,5.63,-2.31,-2.31,0,*7A
1494068650.92,26158,17.06,73666.0,5.59,-2.87,-2.91,0,*7B
1494068652.15,26159,17.06,73666.8,5.57,-3.39,-3.47,0,*7A
1494068653.36,26160,17.06,73668.0,5.51,-3.11,-3.31,0,*7D
1494068654.54,26161,17.06,73664.5,5.45,-3.23,-3.39,0,*70
1494068655.75,26162,17.06,73664.5,5.41,-3.67,-3.91,0,*75
1494068656.93,26163,17.06,73666.0,5.37,-3.07,-3.15,0,*7F
1494068658.11,26164,17.06,73666.8,5.33,-3.03,-3.15,0,*78
1494068659.36,26165,17.06,73666.5,5.33,-2.63,-2.75,0,*79
1494068660.6,26166,17.06,73668.0,5.29,-2.47,-2.59,0,*79
1494068661.81,26167,17.06,73668.0,5.29,-2.07,-2.15,0,*74
1494068663.02,26168,17.06,73668.3,5.25,-1.75,-1.87,0,*79
1494068664.26,26169,17.06,73668.8,5.23,-1.91,-2.03,0,*7B
1494068665.52,26170,17.06,73670.5,5.21,-1.35,-1.35,0,*79
1494068666.76,26171,17.06,73670.5,5.21,-1.05,-1.17,0,*7B
1494068667.96,26172,17.06,73672.8,5.19,-0.93,-0.65,0,*79
1494068669.14,26173,17.06,73672.3,5.19,0.17,0.09,0,*4E
1494068670.35,26174,17.06,73674.8,5.19,0.33,0.41,0,*73
1494068671.54,26175,17.06,73672.5,5.19,-0.81,-0.77,0,*7E
1494068672.76,26176,17.06,73674.5,5.21,-0.89,-0.77,0,*7E
1494068674.01,26177,17.06,73674.3,5.19,-1.95,-2.51,0,*7E
1494068675.25,26178,17.06,73670.8,5.15,-1.83,-1.83,0,*76
1494068676.44,26179,17.06,73668.0,5.15,-1.71,-1.79,0,*7F
1494068677.64,26180,17.06,73668.5,5.11,-1.17,-1.17,0,*75
1494068678.82,26181,17.06,73670.0,5.11,-1.63,-1.59,0,*7D
1494068680.03,26182,17.06,73672.5,5.11,-1.17,-1.13,0,*73
1494068681.25,26183,17.06,73666.5,5.09,-1.29,-1.29,0,*7F
1494068682.44,26184,17.06,73664.8,5.07,-1.29,-1.29,0,*76
1494068683.66,26185,17.06,73670.8,5.07,-1.05,-1.29,0,*79
1494068684.84,26186,17.06,73670.5,5.07,-2.15,-2.19,0,*78
1494068686.08,26187,17.06,73666.8,5.01,-1.47,-1.55,0,*70
1494068687.3,26188,17.06,73670.5,5.01,-1.33,-1.33,0,*7C
1494068688.5,26189,17.06,73668.0,5.01,-1.59,-1.55,0,*71
1494068689.71,26190,17.06,73668.8,4.97,-2.43,-2.43,0,*7B
1494068690.93,26191,17.06,73670.3,4.95,-2.03,-2.15,0,*7F
1494068692.15,26192,17.06,73670.8,4.95,-1.83,-1.79,0,*7E
1494068693.38,26193,17.06,73670.3,4.93,-1.71,-1.71,0,*7C
1494068694.61,26194,17.06,73666.5,4.93,-1.71,-1.67,0,*7C
1494068695.84,26195,17.06,73670.0,4.91,-0.85,-0.57,0,*77
1494068697.01,26196,17.06,73670.3,4.89,-0.61,-0.45,0,*74
1494068698.23,26197,17.06,73668.0,4.89,-1.09,-0.89,0,*4A
1494068699.44,26198,17.06,73670.3,4.91,-1.71,-1.55,0,*73
1494068700.65,26199,17.06,73674.8,4.89,-1.59,-1.47,0,*72
1494068701.83,26200,17.06,73674.5,4.89,-0.73,-0.49,0,*77
1494068703.03,26201,17.06,73674.5,4.87,-0.29,-0.03,0,*49
1494068704.23,26202,17.06,73678.8,4.87,-0.29,-0.07,0,*4E
1494068705.46,26203,17.06,73676.0,4.87,-0.37,-0.27,0,*72
1494068706.66,26204,17.06,73676.3,4.89,-0.89,-0.61,0,*7C
1494068707.86,26205,17.06,73674.5,4.89,-0.23,-0.11,0,*7A
1494068709.1,26206,17.06,73678.0,4.87,-1.67,-1.43,0,*70
1494068710.31,26207,17.06,73674.8,4.85,-1.33,-1.13,0,*77
1494068711.5,26208,17.06,73674.5,4.85,-1.17,-0.81,0,*44
1494068712.74,26209,17.06,73676.8,4.87,-1.51,-1.05,0,*78
1494068713.94,26210,17.06,73678.3,4.85,-1.01,-0.65,0,*40
1494068715.15,26211,17.06,73678.3,4.85,-0.15,0.21,0,*58
1494068716.33,26212,17.06,73680.0,4.85,-0.77,-0.41,0,*74
1494068717.56,26213,17.06,73680.0,4.87,-0.65,-0.27,0,*74
1494068718.76,26214,17.06,73678.0,4.87,-0.29,0.09,0,*6A
1494068719.99,26215,17.06,73676.8,4.87,0.29,0.67,0,*7E
1494068721.2,26216,17.06,73678.8,4.87,0.43,0.79,0,*7E
1494068722.42,26217,17.06,73682.8,4.87,0.59,1.01,0,*4A
1494068723.66,26218,17.06,73678.5,4.91,0.87,1.09,0,*49
1494068724.9,26219,17.06,73678.0,4.91,0.37,0.63,0,*7E
1494068726.13,26220,17.06,73676.5,4.91,0.37,0.63,0,*74
1494068727.37,26221,17.06,73676.5,4.91,0.63,0.87,0,*7E
1494068728.61,26222,17.06,73672.0,4.93,0.13,0.37,0,*73
1494068729.8,26223,17.06,73678.5,4.95,-0.41,-0.15,0,*73
1494068731.02,26224,17.06,73672.8,4.93,-0.45,-0.11,0,*72
1494068732.23,26225,17.06,73676.0,4.93,-0.73,-0.45,0,*77
1494068733.43,26226,17.06,73676.8,4.95,-0.27,0.09,0,*66
1494068734.67,26227,17.06,73674.0,4.91,-1.55,-1.05,0,*77
1494068735.88,26228,17.06,73674.8,4.91,-1.21,-0.73,0,*4B
1494068737.09,26229,17.06,73674.3,4.91,-0.81,-0.33,0,*75
1494068738.32,26230,17.06,73674.0,4.91,-0.93,-0.57,0,*7C
1494068739.53,26231,17.06,73676.3,4.87,-0.77,-0.37,0,*76
1494068740.74,26232,17.06,73674.3,4.91,-0.07,0.37,0,*68
1494068741.92,26233,17.06,73676.8,4.89,0.01,0.47,0,*4C
1494068743.14,26234,17.06,73672.0,4.91,-0.11,0.25,0,*5A
1494068744.36,26235,17.06,73674.0,4.91,-0.11,0.17,0,*5A
1494068745.6,26236,17.06,73672.8,4.91,0.29,0.63,0,*7C
1494068746.85,26237,17.06,73676.8,4.93,0.55,0.79,0,*7F
1494068748.04,26238,17.06,73674.3,4.95,0.09,0.55,0,*41
1494068749.23,26239,17.06,73668.5,4.95,-0.77,-0.45,0,*78
1494068750.44,26240,17.06,73674.0,4.95,-0.89,-0.53,0,*70
1494068751.63,26241,17.06,73674.3,4.95,-0.77,-0.41,0,*73
1494068752.85,26242,17.06,73672.3,4.93,-0.73,-0.45,0,*76
1494068754.06,26243,17.06,73670.8,4.93,-0.41,-0.07,0,*40
1494068755.28,26244,17.06,73670.5,4.93,-0.11,0.25,0,*5F
1494068756.47,26245,17.06,73670.0,4.95,0.43,0.79,0,*7B
1494068757.68,26246,17.06,73668.3,4.95,0.33,0.67,0,*70
1494068758.92,26247,17.06,73670.8,4.97,0.29,0.59,0,*75
1494068760.12,26248,17.06,73670.5,4.95,0.09,0.55,0,*46
1494068761.32,26249,17.06,73670.0,4.95,0.09,0.55,0,*47
1494068762.53,26250,17.06,73674.0,4.95,-0.19,0.21,0,*50
1494068763.74,26251,17.06,73668.0,4.97,0.05,0.47,0,*43
1494068764.98,26252,17.06,73668.5,4.97,0.29,0.59,0,*71
1494068766.21,26253,17.06,73668.8,4.97,0.33,0.67,0,*76
1494068767.44,26254,17.06,73670.8,4.99,0.83,1.09,0,*4D
1494068768.66,26255,17.06,73674.5,4.99,0.83,0.95,0,*78
1494068769.88,26256,17.06,73674.0,4.99,0.21,0.51,0,*7B
1494068771.05,26257,17.06,73676.0,4.99,-0.41,0.01,0,*64
1494068772.26,26258,17.06,73676.3,4.99,-0.11,0.25,0,*58
1494068773.45,26259,17.06,73674.8,4.99,0.01,0.47,0,*41
1494068774.67,26260,17.06,73678.8,4.99,0.83,1.17,0,*45
1494068775.85,26261,17.06,73676.3,4.99,-0.11,0.43,0,*52
1494068777.07,26262,17.06,73676.5,4.99,0.25,0.83,0,*77
1494068778.29,26263,17.06,73674.8,4.99,-0.23,0.33,0,*56
1494068779.48,26264,17.0,73674.0,4.99,0.01,0.59,0,*40
1494068780.7,26265,17.0,73674.5,4.99,0.25,0.63,0,*7E
1494068781.92,26266,17.06,73674.0,4.99,0.25,0.59,0,*74
1494068783.17,26267,17.06,73676.5,5.01,0.87,1.21,0,*43
1494068784.42,26268,17.0,73672.5,5.01,0.87,1.21,0,*4C
1494068785.63,26269,17.06,73678.8,5.03,1.01,1.37,0,*77
1494068786.86,26270,17.06,73678.3,5.01,1.01,1.37,0,*7D
1494068788.08,26271,17.06,73678.8,5.03,0.87,1.29,0,*4E
1494068789.28,26272,17.06,73680.0,5.03,0.55,0.97,0,*76
1494068790.48,26273,17.06,73680.0,5.03,0.13,0.41,0,*7E
1494068791.7,26274,17.06,73682.5,5.03,0.63,0.91,0,*73
1494068792.94,26275,17.06,73680.5,5.01,0.41,0.75,0,*7A
1494068794.16,26276,17.06,73676.3,5.03,0.29,0.51,0,*73
1494068795.35,26277,17.0,73678.3,5.03,0.67,1.01,0,*4C
1494068796.56,26278,17.06,73678.0,5.03,0.63,0.75,0,*75
1494068797.78,26279,17.06,73682.3,5.03,0.13,0.37,0,*75
1494068798.99,26280,17.06,73682.0,5.01,0.05,0.29,0,*49
1494068800.22,26281,17.06,73682.3,5.01,0.41,0.67,0,*72
1494068801.46,26282,17.0,73676.8,5.01,0.41,0.67,0,*71
1494068802.7,26283,17.06,73680.3,5.01,0.51,0.75,0,*72
1494068803.93,26284,17.06,73682.5,5.01,0.29,0.63,0,*7D
1494068805.11,26285,17.06,73678.0,5.03,0.01,0.17,0,*47
1494068806.35,26286,17.06,73680.5,5.01,0.17,0.37,0,*73
1494068807.54,26287,17.06,73678.0,5.01,-0.07,0.05,0,*5F
1494068808.77,26288,17.0,73676.0,4.97,-0.27,-0.07,0,*43
1494068809.98,26289,17.06,73678.8,4.99,0.13,0.33,0,*7C
1494068811.2,26290,17.0,73676.8,4.99,0.21,0.47,0,*76
1494068812.42,26291,17.06,73680.5,4.99,0.25,0.51,0,*74
1494068813.64,26292,17.06,73676.3,4.99,0.25,0.51,0,*77
1494068814.88,26293,17.0,73676.5,4.97,0.17,0.47,0,*7E
1494068816.1,26294,17.06,73678.8,4.99,0.59,0.87,0,*71
1494068817.31,26295,17.06,73680.8,4.99,0.63,0.95,0,*7A
1494068818.53,26296,17.06,73676.3,4.99,0.25,0.59,0,*7B
1494068819.74,26297,17.06,73676.8,4.99,0.33,0.63,0,*74
1494068820.93,26298,17.06,73678.0,4.99,-0.53,-0.15,0,*7C
1494068822.11,26299,17.06,73676.5,4.99,-0.61,-0.37,0,*7C
1494068823.35,26300,17.06,73678.5,4.97,-1.21,-0.93,0,*48
1494068824.58,26301,17.0,73672.8,4.97,-1.91,-1.55,0,*79
1494068825.82,26302,17.06,73678.5,4.93,-1.09,-0.81,0,*47
1494068827.03,26303,17.06,73682.8,4.93,-0.69,-0.45,0,*79
1494068828.28,26304,17.06,73680.3,4.93,-1.33,-1.05,0,*75
1494068829.49,26305,17.0,73678.8,4.89,-1.21,-0.85,0,*45
1494068830.66,26306,17.0,73678.0,4.89,-0.49,-0.29,0,*7F
1494068831.83,26307,17.06,73678.8,4.89,-0.11,-0.07,0,*4F
1494068833.01,26308,17.06,73682.0,4.89,0.01,0.13,0,*44
1494068834.22,26309,17.0,73682.0,4.89,0.37,0.59,0,*7E
1494068835.42,26310,17.06,73680.3,4.91,0.43,0.63,0,*75
1494068836.62,26311,17.06,73680.8,4.91,-0.11,0.05,0,*6E
1494068837.82,26312,17.06,73680.3,4.93,-0.29,0.01,0,*60
1494068839.04,26313,17.06,73680.8,4.91,-0.23,-0.07,0,*42
1494068840.25,26314,17.06,73680.0,4.91,0.01,0.29,0,*49
1494068841.44,26315,17.06,73678.0,4.89,-0.03,0.21,0,*66
1494068842.65,26316,17.06,73678.3,4.89,0.13,0.37,0,*7E
1494068843.83,26317,17.0,73676.8,4.89,0.09,0.41,0,*45
1494068845.01,26318,17.0,73672.0,4.89,0.01,0.37,0,*43
1494068846.21,26319,17.06,73672.3,4.89,-0.23,-0.11,0,*76
1494068847.44,26320,17.06,73676.3,4.87,-0.27,0.09,0,*62
1494068848.65,26321,17.06,73672.8,4.87,0.09,0.37,0,*4F
1494068849.87,26322,17.0,73672.0,4.87,-0.07,0.21,0,*68
1494068851.05,26323,17.0,73670.0,4.85,-0.19,-0.07,0,*4D
1494068852.23,26324,17.06,73668.3,4.81,-0.45,-0.29,0,*7B
1494068853.41,26325,17.0,73666.0,4.81,-0.69,-0.57,0,*7D
1494068854.59,26326,17.06,73668.0,4.81,-0.45,-0.41,0,*77
1494068855.8,26327,17.06,73670.3,4.79,-0.57,-0.53,0,*71
1494068857.04,26328,17.0,73664.5,4.79,-1.21,-1.09,0,*70
1494068858.25,26329,17.06,73670.3,4.77,-1.51,-1.47,0,*72
1494068859.46,26330,17.06,73668.0,4.75,-0.81,-0.65,0,*75
1494068860.67,26331,17.06,73668.3,4.75,-0.81,-0.69,0,*78
1494068861.85,26332,17.06,73670.0,4.73,-0.19,-0.03,0,*40
1494068863.03,26333,17.06,73670.3,4.73,-0.81,-0.65,0,*70
1494068864.21,26334,17.0,73666.3,4.73,-1.63,-1.55,0,*78
1494068865.44,26335,17.0,73666.0,4.69,-1.05,-0.93,0,*49
1494068866.63,26336,17.0,73666.3,4.69,-1.55,-1.33,0,*74
1494068867.87,26337,17.0,73664.3,4.67,-1.47,-1.33,0,*78
1494068869.13,26338,17.0,73664.8,4.63,-1.01,-0.89,0,*41
1494068870.33,26339,17.0,73664.8,4.63,-0.61,-0.49,0,*7B
1494068871.54,26340,17.0,73670.0,4.63,-0.41,-0.37,0,*7E
1494068872.73,26341,17.06,73670.3,4.61,-0.33,-0.41,0,*79
1494068873.92,26342,17.06,73670.3,4.57,-0.81,-0.77,0,*73
1494068875.1,26343,17.0,73668.5,4.57,-0.33,-0.11,0,*7B
1494068876.28,26344,17.0,73672.5,4.61,-0.57,-0.53,0,*7D
1494068877.46,26345,17.06,73672.0,4.57,-0.29,-0.19,0,*7E
1494068878.63,26346,17.06,73674.3,4.57,-0.19,0.05,0,*6E
1494068879.84,26347,17.0,73672.3,4.55,-0.11,-0.03,0,*4E
1494068881.01,26348,17.0,73668.5,4.57,-0.19,-0.07,0,*4F
1494068882.19,26349,17.0,73672.5,4.57,0.01,0.17,0,*46
1494068883.4,26350,17.0,73672.0,4.55,-0.33,-0.15,0,*7F
1494068884.59,26351,17.0,73668.5,4.55,-0.03,0.05,0,*51
1494068885.83,26352,17.0,73670.8,4.55,0.41,0.51,0,*78
1494068887.05,26353,17.0,73668.3,4.55,0.05,0.25,0,*4A
1494068888.24,26354,17.0,73670.0,4.55,-0.03,0.05,0,*54
1494068889.46,26355,17.0,73670.5,4.53,0.13,0.21,0,*79
1494068890.69,26356,17.0,73670.5,4.55,0.25,0.41,0,*7F
1494068891.88,26357,17.06,73668.0,4.53,-0.41,-0.29,0,*74
1494068893.06,26358,17.0,73668.0,4.49,-0.19,0.05,0,*6E
1494068894.27,26359,17.0,73670.0,4.51,0.21,0.43,0,*72
1494068895.46,26360,17.0,73666.5,4.49,-0.37,-0.15,0,*75
1494068896.64,26361,17.0,73668.3,4.49,-0.33,-0.19,0,*7C
1494068897.81,26362,17.06,73668.5,4.49,-0.29,-0.03,0,*4F
1494068899.0,26363,17.06,73670.5,4.45,-0.57,-0.49,0,*75
1494068900.18,26364,17.0,73670.0,4.45,-0.57,-0.49,0,*72
1494068901.36,26365,17.06,73670.3,4.45,-0.57,-0.49,0,*73
1494068902.6,26366,17.0,73670.0,4.43,-0.27,-0.15,0,*78
1494068903.79,26367,17.0,73666.3,4.41,-0.03,0.13,0,*66
1494068904.98,26368,17.0,73670.5,4.41,-0.27,0.01,0,*6C
1494068906.16,26369,17.0,73670.5,4.41,-0.49,-0.19,0,*71
1494068907.37,26370,17.06,73668.5,4.35,-1.33,-1.17,0,*79
1494068908.61,26371,17.0,73670.8,4.35,-1.29,-1.09,0,*7C
1494068909.87,26372,17.0,73672.3,4.35,-1.05,-0.89,0,*48
1494068911.11,26373,17.0,73672.0,4.31,-1.43,-1.25,0,*78
1494068912.35,26374,17.0,73674.3,4.31,-1.35,-1.33,0,*79
1494068913.58,26375,17.0,73672.0,4.27,-1.05,-0.93,0,*47
1494068914.78,26376,17.0,73674.5,4.27,-0.93,-0.77,0,*70
1494068916.0,26377,17.0,73672.5,4.27,-1.13,-0.93,0,*42
1494068917.21,26378,17.0,73672.5,4.23,-1.25,-1.05,0,*72